Location: Taukkyan
(23.1052°N, 94.0030°E)
Time: 11:53:40
(UTC+00:00)

Cosmos 1125 Rocket - Pass Details

Date: 06 July 2020
Orbit: 757 x 780 km, 74.0° (Epoch: 14 August)

Event Time Altitude Azimuth Distance (km) Brightness Sun altitude
Rises 14:12:47 0° 350° (N) 3,237 7.5 -20.4°
Reaches altitude 10° 14:15:11 10° 354° (N) 2,312 6.6 -20.8°
Maximum altitude 14:20:22 61° 74° (ENE) 873 3.5 -21.7°
Enters shadow 14:21:24 51° 122° (ESE) 972 3.6 -21.9°
